datetime,average secondary canal gage height
2020-12-26,66.9468132
2020-12-27,
2020-12-28,
2020-12-29,
2020-12-30,
2020-12-31,
2021-01-01,
2021-01-02,
2021-01-03,
2021-01-04,
2021-01-05,
2021-01-06,
2021-01-07,
2021-01-08,
2021-01-09,
2021-01-10,
2021-01-11,
2021-01-12,
2021-01-13,
2021-01-14,
2021-01-15,
2021-01-16,
2021-01-17,
2021-01-18,
2021-01-19,
2021-01-20,
2021-01-21,
2021-01-22,
2021-01-23,
2021-01-24,
2021-01-25,
2021-01-26,
2021-01-27,
2021-01-28,
2021-01-29,
2021-01-30,
2021-01-31,
2021-02-01,
2021-02-02,
2021-02-03,
2021-02-04,
2021-02-05,
2021-02-06,
2021-02-07,
2021-02-08,
2021-02-09,
2021-02-10,
2021-02-11,
2021-02-12,
2021-02-13,
2021-02-14,
2021-02-15,
2021-02-16,
2021-02-17,
2021-02-18,
2021-02-19,
2021-02-20,
2021-02-21,
2021-02-22,
2021-02-23,
2021-02-24,
2021-02-25,
2021-02-26,
2021-02-27,
2021-02-28,
2021-03-01,
2021-03-02,
2021-03-03,
2021-03-04,
2021-03-05,
2021-03-06,
2021-03-07,
2021-03-08,
2021-03-09,
2021-03-10,
2021-03-11,
2021-03-12,
2021-03-13,
2021-03-14,
2021-03-15,
2021-03-16,
2021-03-17,
2021-03-18,
2021-03-19,
2021-03-20,
2021-03-21,
2021-03-22,66.9269767
2021-03-23,66.7851042
2021-03-24,66.5917708
2021-03-25,66.6130208
2021-03-26,66.5972917
2021-03-27,66.4547917
2021-03-28,66.3579167
2021-03-29,66.2603125
2021-03-30,66.3602083
2021-03-31,66.5702083
2021-04-01,66.5063542
2021-04-02,66.3607292
2021-04-03,66.2764583
2021-04-04,66.2669792
2021-04-05,66.1121875
2021-04-06,65.8946875
2021-04-07,65.8294792
2021-04-08,65.7954167
2021-04-09,65.8063542
2021-04-10,65.77375
2021-04-11,65.73
2021-04-12,65.7135417
2021-04-13,65.7133333
2021-04-14,65.6855208
2021-04-15,65.669375
2021-04-16,65.6611458
2021-04-17,65.6482292
2021-04-18,65.6442708
2021-04-19,65.6378125
2021-04-20,65.6507292
2021-04-21,65.6364583
2021-04-22,65.6116667
2021-04-23,65.5975
2021-04-24,65.6340625
2021-04-25,65.6538542
2021-04-26,65.6598958
2021-04-27,65.6308333
2021-04-28,65.6048958
2021-04-29,65.6269792
2021-04-30,65.6723958
2021-05-01,65.6402083
2021-05-02,65.7973958
2021-05-03,66.0864583
2021-05-04,66.2384375
2021-05-05,66.2784375
2021-05-06,66.158125
2021-05-07,65.8277083
2021-05-08,65.6136458
2021-05-09,65.5669792
2021-05-10,65.5416667
2021-05-11,65.5222917
2021-05-12,65.5094792
2021-05-13,65.5021875
2021-05-14,65.498125
2021-05-15,65.4967708
2021-05-16,65.4857292
2021-05-17,65.4747917
2021-05-18,65.4688542
2021-05-19,65.4652083
2021-05-20,65.4635417
2021-05-21,65.4645833
2021-05-22,65.48
2021-05-23,65.4748958
2021-05-24,65.4570833
2021-05-25,65.5071875
2021-05-26,65.85
2021-05-27,66.296875
2021-05-28,66.6376042
2021-05-29,66.8853125
2021-05-30,67.2264583
2021-05-31,67.5858333
2021-06-01,67.8445833
2021-06-02,68.1552083
2021-06-03,68.3285417
2021-06-04,68.411875
2021-06-05,68.4607292
2021-06-06,68.524375
2021-06-07,68.6052083
2021-06-08,68.6301042
2021-06-09,68.6576042
2021-06-10,68.6607292
2021-06-11,68.6748958
2021-06-12,68.715
2021-06-13,68.7377083
2021-06-14,68.7791667
2021-06-15,68.8525
2021-06-16,69.0080208
2021-06-17,69.236875
2021-06-18,69.4084375
2021-06-19,69.420625
2021-06-20,69.4615625
2021-06-21,69.2060417
2021-06-22,68.2528125
2021-06-23,68.151875
2021-06-24,68.3546875
2021-06-25,68.4533333
2021-06-26,68.5563542
2021-06-27,68.6238542
2021-06-28,68.5995833
2021-06-29,68.573125
2021-06-30,68.665625
2021-07-01,68.7544792
2021-07-02,68.8417708
2021-07-03,68.9711458
2021-07-04,69.0995833
2021-07-05,69.1904167
2021-07-06,68.7597917
2021-07-07,68.0754167
2021-07-08,67.871875
2021-07-09,68.0764583
2021-07-10,68.4735417
2021-07-11,68.7989583
2021-07-12,69.0544792
2021-07-13,69.3109375
2021-07-14,69.6892708
2021-07-15,69.3586458
2021-07-16,68.6784375
2021-07-17,68.7154167
2021-07-18,68.849375
2021-07-19,68.9205208
2021-07-20,68.9953125
2021-07-21,69.0275281
2021-07-22,
2021-07-23,68.6521519
2021-07-24,68.628125
2021-07-25,68.5345833
2021-07-26,68.5790625
2021-07-27,68.6314583
2021-07-28,68.7335417
2021-07-29,68.7041667
2021-07-30,68.4830208
2021-07-31,68.3767708
2021-08-01,68.2570833
2021-08-02,68.2201042
2021-08-03,68.3301042
2021-08-04,68.3805208
2021-08-05,68.4744792
2021-08-06,68.5485417
2021-08-07,68.4591667
2021-08-08,68.3259375
2021-08-09,68.2342708
2021-08-10,68.4620833
2021-08-11,68.8201042
2021-08-12,68.7026042
2021-08-13,68.8241667
2021-08-14,69.209375
2021-08-15,69.3865625
2021-08-16,69.468125
2021-08-17,69.2748958
2021-08-18,68.7733333
2021-08-19,68.6477083
2021-08-20,68.7001042
2021-08-21,68.5895833
2021-08-22,68.4858333
2021-08-23,68.4220833
2021-08-24,68.4511458
2021-08-25,68.4154167
2021-08-26,68.4130208
2021-08-27,68.5336458
2021-08-28,68.6465625
2021-08-29,68.7664583
2021-08-30,69.0814583
2021-08-31,69.2072917
2021-09-01,69.0763542
2021-09-02,68.9735417
2021-09-03,68.7457292
2021-09-04,68.5279167
2021-09-05,68.3425
2021-09-06,67.9597917
2021-09-07,67.6159375
2021-09-08,67.27375
2021-09-09,67.1770833
2021-09-10,67.1670833
2021-09-11,67.0629167
2021-09-12,66.9797917
2021-09-13,66.9703125
2021-09-14,67.1853125
2021-09-15,67.3044792
2021-09-16,67.3680208
2021-09-17,67.269375
2021-09-18,67.215625
2021-09-19,67.258125
2021-09-20,67.4852083
2021-09-21,67.5709375
2021-09-22,67.6138542
2021-09-23,67.5796875
2021-09-24,67.5503125
2021-09-25,67.7480208
2021-09-26,67.7123958
2021-09-27,67.4073958
2021-09-28,67.38375
2021-09-29,67.6554167
2021-09-30,67.6845833
2021-10-01,67.5794792
2021-10-02,67.3636458
2021-10-03,67.1508333
2021-10-04,67.0341667
2021-10-05,66.9069792
2021-10-06,66.895
2021-10-07,66.8004762
2021-10-08,66.5788542
2021-10-09,66.551875
2021-10-10,66.5733333
2021-10-11,66.5945833
2021-10-12,66.9063542
2021-10-13,67.3116667
2021-10-14,67.6011458
2021-10-15,67.8429167
2021-10-16,68.04875
2021-10-17,68.2557292
2021-10-18,68.460625
2021-10-19,68.3847917
2021-10-20,68.2519792
2021-10-21,68.1028125
2021-10-22,68.0380208
2021-10-23,68.0303125
2021-10-24,67.9586458
2021-10-25,67.8911458
2021-10-26,67.814375
2021-10-27,67.77125
2021-10-28,67.7465625
2021-10-29,67.6807292
2021-10-30,67.6841667
2021-10-31,67.8122917
2021-11-01,67.96625
2021-11-02,68.1629167
2021-11-03,68.4317708
2021-11-04,68.7113542
2021-11-05,68.6957292
2021-11-06,68.6385417
2021-11-07,68.5622917
2021-11-08,68.4784375
2021-11-09,68.3955208
2021-11-10,68.2825
2021-11-11,68.1369792
2021-11-12,68.0553125
2021-11-13,68.0252083
2021-11-14,67.9979167
2021-11-15,67.9144792
2021-11-16,68.0366667
2021-11-17,68.2753125
2021-11-18,68.4735417
2021-11-19,68.4013542
2021-11-20,68.2097917
2021-11-21,67.9541667
2021-11-22,67.93875
2021-11-23,67.7714583
2021-11-24,67.624375
2021-11-25,67.5602083
2021-11-26,67.5590625
2021-11-27,67.6498958
2021-11-28,67.6095833
2021-11-29,67.5554167
2021-11-30,67.4854167
2021-12-01,67.4671875
2021-12-02,67.5651042
2021-12-03,67.73
2021-12-04,67.8611458
2021-12-05,67.9815625
2021-12-06,68.1207292
2021-12-07,68.2396875
2021-12-08,68.3358333
2021-12-09,68.3983333
2021-12-10,68.2929167
2021-12-11,68.0573958
2021-12-12,67.7089583
2021-12-13,67.6382955
2021-12-14,67.6863542
2021-12-15,67.6785417
2021-12-16,67.6840625
2021-12-17,67.7854167
2021-12-18,67.641875
2021-12-19,67.4802083
2021-12-20,67.3536458
2021-12-21,67.3265625
2021-12-22,67.3063542
2021-12-23,67.3647917
2021-12-24,67.4003125
2021-12-25,67.6744792
2021-12-26,68.0419792
2021-12-27,67.9891667
2021-12-28,67.8376042
2021-12-29,67.7375
2021-12-30,67.7282292
2021-12-31,67.7644792
2022-01-01,67.9005208
2022-01-02,68.0616667
2022-01-03,68.165
2022-01-04,68.0545833
2022-01-05,68.2091667
2022-01-06,68.3555208
2022-01-07,68.4633333
2022-01-08,68.5519792
2022-01-09,68.5901042
2022-01-10,68.59
2022-01-11,68.5965625
2022-01-12,68.6014583
2022-01-13,68.61
2022-01-14,68.6111458
2022-01-15,68.6225
2022-01-16,68.6477083
2022-01-17,68.6814583
2022-01-18,68.7038542
2022-01-19,68.635
2022-01-20,68.4553125
2022-01-21,68.4328125
2022-01-22,68.4051042
2022-01-23,68.2719792
2022-01-24,68.36375
2022-01-25,68.2309375
2022-01-26,68.0563542
2022-01-27,67.93375
2022-01-28,67.819375
2022-01-29,67.9194792
2022-01-30,68.2216667
2022-01-31,68.3626042
2022-02-01,68.3123958
2022-02-02,68.3213542
2022-02-03,68.2797917
2022-02-04,68.1211458
2022-02-05,67.9647917
2022-02-06,67.7869792
2022-02-07,67.6136458
2022-02-08,67.5121875
2022-02-09,67.3226042
2022-02-10,67.0603125
2022-02-11,66.5695833
2022-02-12,66.1351042
2022-02-13,66.0345833
2022-02-14,66.0465625
2022-02-15,66.0239583
2022-02-16,65.9858333
2022-02-17,65.9694792
2022-02-18,65.9622917
2022-02-19,65.9469792
2022-02-20,65.9340625
2022-02-21,65.9128125
2022-02-22,65.91
2022-02-23,65.8961458
2022-02-24,65.8842708
2022-02-25,65.9958333
2022-02-26,65.9565625
2022-02-27,66.1122917
2022-02-28,65.9121875
2022-03-01,66.8001042
2022-03-02,67.9176042
2022-03-03,68.5392708
2022-03-04,68.9391667
2022-03-05,69.2890625
2022-03-06,69.6163542
2022-03-07,70.211875
2022-03-08,70.949375
2022-03-09,71.5698958
2022-03-10,71.9454167
2022-03-11,71.9566667
2022-03-12,71.9939583
2022-03-13,72.2113542
2022-03-14,72.1535417
2022-03-15,72.1541667
2022-03-16,71.9348958
2022-03-17,71.7080208
2022-03-18,71.5290625
2022-03-19,71.6383333
2022-03-20,71.8757292
2022-03-21,71.8611458
2022-03-22,71.7332292
2022-03-23,71.3020833
2022-03-24,69.209375
2022-03-25,67.9378125
2022-03-26,67.343125
2022-03-27,67.2044792
2022-03-28,67.1739583
2022-03-29,67.1547917
2022-03-30,67.2163542
2022-03-31,67.3496875
2022-04-01,66.5317708
2022-04-02,66.575625
2022-04-03,66.52875
2022-04-04,66.2965625
2022-04-05,66.754375
2022-04-06,67.218125
2022-04-07,67.1294792
2022-04-08,67.1415625
2022-04-09,67.1057292
2022-04-10,67.66625
2022-04-11,68.2522917
2022-04-12,68.6785417
2022-04-13,68.7252083
2022-04-14,68.525
2022-04-15,68.3586458
2022-04-16,68.4593421
2022-04-17,68.5009375
2022-04-18,68.1585417
2022-04-19,67.5208333
2022-04-20,67.0720833
2022-04-21,67.1995833
2022-04-22,67.2836458
2022-04-23,67.0254167
2022-04-24,67.0257292
2022-04-25,66.9509375
2022-04-26,66.785
2022-04-27,66.716875
2022-04-28,66.7636458
2022-04-29,66.776875
2022-04-30,66.8719792
2022-05-01,66.9610417
2022-05-02,67.1240625
2022-05-03,67.5139583
2022-05-04,67.556875
2022-05-05,67.3438542
2022-05-06,67.1284375
2022-05-07,67.0505208
2022-05-08,66.9696875
2022-05-09,67.0258333
2022-05-10,67.3402083
2022-05-11,67.7157292
2022-05-12,68.054375
2022-05-13,68.106875
2022-05-14,68.0552083
2022-05-15,68.1995833
2022-05-16,68.4223958
2022-05-17,68.6797917
2022-05-18,69.1383333
2022-05-19,68.8011458
2022-05-20,68.6092708
2022-05-21,68.7251042
2022-05-22,68.985
2022-05-23,69.3690625
2022-05-24,69.6491667
2022-05-25,69.7620833
2022-05-26,69.1998958
2022-05-27,68.8767708
2022-05-28,69.0970833
2022-05-29,69.2896875
2022-05-30,69.4672917
2022-05-31,69.5459375
2022-06-01,69.5503125
2022-06-02,69.5609375
2022-06-03,69.6313542
2022-06-04,69.5226042
2022-06-05,69.5628125
2022-06-06,69.67625
2022-06-07,69.574375
2022-06-08,69.4915625
2022-06-09,69.5070833
2022-06-10,69.5286458
2022-06-11,69.5770652
2022-06-12,69.3542708
2022-06-13,69.2014583
2022-06-14,69.3127083
2022-06-15,69.3376042
2022-06-16,69.37375
2022-06-17,69.4413542
2022-06-18,69.5382292
2022-06-19,69.3595833
2022-06-20,69.3625
2022-06-21,69.4548958
2022-06-22,69.3567708
2022-06-23,69.2539583
2022-06-24,69.1983333
2022-06-25,69.1515625
2022-06-26,69.2320833
2022-06-27,69.0915625
2022-06-28,68.9785417
2022-06-29,69.008125
2022-06-30,68.9295833
2022-07-01,68.8882292
2022-07-02,68.9889583
2022-07-03,69.2419792
2022-07-04,69.23
2022-07-05,69.2186458
2022-07-06,69.2022917
2022-07-07,69.3686458
2022-07-08,69.3696875
2022-07-09,69.3607292
2022-07-10,69.2946875
2022-07-11,69.0469792
2022-07-12,68.6101042
2022-07-13,68.2803125
2022-07-14,68.2165625
2022-07-15,68.525
2022-07-16,68.3069792
2022-07-17,68.4023958
2022-07-18,68.5698958
2022-07-19,68.7586458
2022-07-20,68.8978125
2022-07-21,68.985
2022-07-22,69.1102083
2022-07-23,69.215625
2022-07-24,69.3430208
2022-07-25,69.48
2022-07-26,69.40375
2022-07-27,69.5505208
2022-07-28,69.6385417
2022-07-29,69.6695833
2022-07-30,69.7138542
2022-07-31,69.838125
2022-08-01,69.7072917
2022-08-02,69.8371875
2022-08-03,69.9780208
2022-08-04,70.0041667
2022-08-05,70.0161458
2022-08-06,70.0654167
2022-08-07,70.1033333
2022-08-08,69.8719792
2022-08-09,69.2078125
2022-08-10,68.9338542
2022-08-11,69.2492708
2022-08-12,69.4223958
2022-08-13,69.53
2022-08-14,69.64875
2022-08-15,69.3841667
2022-08-16,69.3096875
2022-08-17,69.3798958
2022-08-18,69.4394792
2022-08-19,69.3894792
2022-08-20,69.4098958
2022-08-21,69.4641667
2022-08-22,69.5742708
2022-08-23,69.550625
2022-08-24,69.5497917
2022-08-25,69.4788542
2022-08-26,69.6098958
2022-08-27,69.7502083
2022-08-28,69.8522917
2022-08-29,69.8975
2022-08-30,69.8194792
2022-08-31,69.6570833
2022-09-01,69.7047917
2022-09-02,69.6907292
2022-09-03,69.7622917
2022-09-04,69.8601042
2022-09-05,69.9452083
2022-09-06,69.9875
2022-09-07,69.806875
2022-09-08,69.7035417
2022-09-09,69.8425
2022-09-10,69.965
2022-09-11,70.04125
2022-09-12,69.8659375
2022-09-13,69.7817708
2022-09-14,69.6534375
2022-09-15,69.5566667
2022-09-16,69.576875
2022-09-17,69.5564583
2022-09-18,69.5110417
2022-09-19,69.3828125
2022-09-20,69.3042708
2022-09-21,69.2204167
2022-09-22,69.1317708
2022-09-23,69.0267708
2022-09-24,68.9384375
2022-09-25,68.8875
2022-09-26,68.804375
2022-09-27,68.6465625
2022-09-28,68.5889583
2022-09-29,68.5652083
2022-09-30,68.4108333
2022-10-01,68.3770833
2022-10-02,68.2870833
2022-10-03,68.325625
2022-10-04,68.279375
2022-10-05,68.1844792
2022-10-06,68.0446875
2022-10-07,67.9539583
2022-10-08,67.9232292
2022-10-09,68.0484375
2022-10-10,68.1967708
2022-10-11,68.221875
2022-10-12,68.1748958
2022-10-13,68.1204167
2022-10-14,68.0914583
2022-10-15,68.1014583
2022-10-16,68.1813542
2022-10-17,68.21
2022-10-18,68.2191667
2022-10-19,68.1902083
2022-10-20,68.0196875
2022-10-21,67.7835417
2022-10-22,67.695625
2022-10-23,67.6366667
2022-10-24,67.6192708
2022-10-25,67.6014583
2022-10-26,67.5373958
2022-10-27,67.4530208
2022-10-28,67.3533333
2022-10-29,67.3517708
2022-10-30,67.3158333
2022-10-31,67.2315625
2022-11-01,66.842619
2022-11-02,66.6642708
2022-11-03,66.4339583
2022-11-04,66.1226042
2022-11-05,66.0779167
2022-11-06,66.0473034
2022-11-07,66.0275789
2022-11-08,66.0066667
2022-11-09,65.9839583
2022-11-10,65.9067708
2022-11-11,65.8682292
2022-11-12,65.853125
2022-11-13,65.8522581
2022-11-14,65.9373684
2022-11-15,65.8573958
2022-11-16,65.7551042
2022-11-17,65.7322917
2022-11-18,65.7579167
2022-11-19,66.4433333
2022-11-20,67.3886458
2022-11-21,67.7836458
2022-11-22,67.7163542
2022-11-23,67.5969792
2022-11-24,67.5508333
2022-11-25,67.3177083
2022-11-26,66.9795833
2022-11-27,66.629375
2022-11-28,66.2320833
2022-11-29,65.8672917
2022-11-30,65.7826042
2022-12-01,65.7734375
2022-12-02,65.75625
2022-12-03,65.79125
2022-12-04,65.863125
2022-12-05,65.8659375
2022-12-06,65.756875
2022-12-07,65.7221875
2022-12-08,65.6984783
2022-12-09,65.6944792
2022-12-10,65.8013542
2022-12-11,65.8070833
2022-12-12,65.7566667
2022-12-13,65.7433333
2022-12-14,65.7183333
2022-12-15,65.7154167
2022-12-16,65.7241667
2022-12-17,65.7365625
2022-12-18,65.8264583
2022-12-19,66.345
2022-12-20,66.7039583
2022-12-21,66.3103125
2022-12-22,66.0005208
2022-12-23,65.9470833
2022-12-24,65.8892708
2022-12-25,65.85
2022-12-26,65.8252083
2022-12-27,65.9322917
2022-12-28,65.8620833
2022-12-29,66.3220833
2022-12-30,66.9619792
2022-12-31,67.5515625
2023-01-01,67.8211458
2023-01-02,67.5588542
2023-01-03,67.2316667
2023-01-04,66.8780208
2023-01-05,66.1803125
2023-01-06,65.8295833
2023-01-07,65.8173958
2023-01-08,65.7997917
2023-01-09,65.8194792
2023-01-10,65.7942708
2023-01-11,65.781875
2023-01-12,65.7908333
2023-01-13,65.7719792
2023-01-14,65.7885417
2023-01-15,65.7594792
2023-01-16,65.7560417
2023-01-17,65.7180208
2023-01-18,65.7220833
2023-01-19,66.084375
2023-01-20,66.8008333
2023-01-21,67.0565625
2023-01-22,67.2864583
2023-01-23,67.3510417
2023-01-24,67.49375
2023-01-25,67.3232292
2023-01-26,66.8347917
2023-01-27,66.2179167
2023-01-28,65.9832292
2023-01-29,66.3289583
2023-01-30,66.5310417
2023-01-31,66.4288542
2023-02-01,66.34875
2023-02-02,66.5967708
2023-02-03,66.3822917
2023-02-04,66.02
2023-02-05,65.88
2023-02-06,65.7653125
2023-02-07,65.7302083
2023-02-08,65.7198958
2023-02-09,65.7111458
2023-02-10,65.7103125
2023-02-11,65.7139583
2023-02-12,65.6851042
2023-02-13,65.6882292
2023-02-14,65.6747917
2023-02-15,65.6665625
2023-02-16,65.6761458
2023-02-17,65.683125
2023-02-18,65.9776042
2023-02-19,67.21625
2023-02-20,69.2467708
2023-02-21,69.7369792
2023-02-22,70.0415625
2023-02-23,70.1558333
2023-02-24,70.2390625
2023-02-25,70.5530208
2023-02-26,70.98125
2023-02-27,71.1734375
2023-02-28,71.0648958
2023-03-01,71.2127083
2023-03-02,71.2578125
2023-03-03,71.5040625
2023-03-04,71.6183333
2023-03-05,71.2632292
2023-03-06,70.9526042
2023-03-07,70.9620833
2023-03-08,71.1088542
2023-03-09,71.0154167
2023-03-10,70.9979167
2023-03-11,71.1809375
2023-03-12,71.3171875
2023-03-13,71.4286458
2023-03-14,71.54125
2023-03-15,71.6454167
2023-03-16,71.4510417
2023-03-17,71.3442708
2023-03-18,71.093125
2023-03-19,70.5778125
2023-03-20,70.1932292
2023-03-21,69.9267708
2023-03-22,69.9940625
2023-03-23,70.2046875
2023-03-24,70.5139583
2023-03-25,70.7223958
2023-03-26,71.1783333
2023-03-27,71.5613542
2023-03-28,71.151875
2023-03-29,68.7334375
2023-03-30,67.2511458
2023-03-31,67.2879167
2023-04-01,67.3197917
2023-04-02,68.2710417
2023-04-03,67.026875
2023-04-04,67.4780208
2023-04-05,67.2220833
2023-04-06,67.3563542
2023-04-07,67.1748958
2023-04-08,68.6220833
2023-04-09,69.39
2023-04-10,69.3575
2023-04-11,68.2054167
2023-04-12,68.7704167
2023-04-13,68.4397917
2023-04-14,67.8083333
2023-04-15,67.3897917
2023-04-16,67.3177083
2023-04-17,67.47
2023-04-18,69.1761458
2023-04-19,69.903125
2023-04-20,69.9283333
2023-04-21,69.6575
2023-04-22,69.4346875
2023-04-23,69.203125
2023-04-24,69.0145833
2023-04-25,69.2903125
2023-04-26,69.1520833
2023-04-27,69.4077083
2023-04-28,69.0128125
2023-04-29,68.76
2023-04-30,69.0403125
2023-05-01,69.2883333
2023-05-02,68.99125
2023-05-03,69.0896875
2023-05-04,69.4189583
2023-05-05,69.2042708
2023-05-06,69.2196875
2023-05-07,69.526875
2023-05-08,69.6091667
2023-05-09,68.973125
2023-05-10,68.4192708
2023-05-11,67.9461458
2023-05-12,67.2864583
2023-05-13,66.5147917
2023-05-14,66.276875
2023-05-15,66.45
2023-05-16,66.68625
2023-05-17,67.3154167
2023-05-18,67.8610417
2023-05-19,68.1402083
2023-05-20,68.3546875
2023-05-21,68.6369792
2023-05-22,68.7297917
2023-05-23,68.594375
2023-05-24,68.5603125
2023-05-25,67.958125
2023-05-26,67.6923958
2023-05-27,67.7860417
2023-05-28,67.9975385
2023-05-29,
2023-05-30,
2023-05-31,
2023-06-01,68.4835821
2023-06-02,68.685
2023-06-03,68.82875
2023-06-04,68.9616667
2023-06-05,68.9697917
2023-06-06,68.8823958
2023-06-07,69.0710417
2023-06-08,69.1226042
2023-06-09,68.9298958
2023-06-10,68.9294792
2023-06-11,68.883125
2023-06-12,68.8413542
2023-06-13,68.7276042
2023-06-14,68.6532292
2023-06-15,68.4409375
2023-06-16,68.3936458
2023-06-17,68.519375
2023-06-18,68.625
2023-06-19,68.7154167
2023-06-20,68.7690625
2023-06-21,68.7864583
2023-06-22,69.0795833
2023-06-23,69.0983333
2023-06-24,69.1415625
2023-06-25,69.2276042
2023-06-26,68.8780208
2023-06-27,68.5122642
2023-06-28,68.8953731
2023-06-29,69.0759375
2023-06-30,69.2639583
2023-07-01,69.3823958
2023-07-02,69.5675
2023-07-03,69.6802083
2023-07-04,69.6820833
2023-07-05,69.0708333
2023-07-06,68.7944792
2023-07-07,68.9525
2023-07-08,68.9338542
2023-07-09,69.0383333
2023-07-10,69.1269792
2023-07-11,69.2020833
2023-07-12,69.3596875
2023-07-13,69.4945833
2023-07-14,69.5909375
2023-07-15,69.5111458
2023-07-16,69.3109375
2023-07-17,69.2634375
2023-07-18,69.366875
2023-07-19,69.47625
2023-07-20,69.4357292
2023-07-21,69.4554167
2023-07-22,69.3828125
2023-07-23,69.3745833
2023-07-24,69.3516667
2023-07-25,69.1795833
2023-07-26,69.3683333
2023-07-27,69.1365625
2023-07-28,69.1109375
2023-07-29,69.3472917
2023-07-30,69.4795833
2023-07-31,69.4028125
2023-08-01,69.3701042
2023-08-02,69.653125
2023-08-03,69.8044792
2023-08-04,69.884058
2023-08-05,
2023-08-06,
2023-08-07,
2023-08-08,
2023-08-09,70.1392063
2023-08-10,70.1938542
2023-08-11,70.2279167
2023-08-12,70.289375
2023-08-13,70.3340625
2023-08-14,70.3371875
2023-08-15,70.3141667
2023-08-16,70.1432292
2023-08-17,70.1291667
2023-08-18,70.1864583
2023-08-19,70.1777083
2023-08-20,70.1434375
2023-08-21,70.09875
2023-08-22,70.1413542
2023-08-23,70.1398958
2023-08-24,70.1073958
2023-08-25,70.1610417
2023-08-26,70.1365625
2023-08-27,70.08875
2023-08-28,70.08
2023-08-29,70.0626042
2023-08-30,70.0447917
2023-08-31,70.0580208
2023-09-01,70.0791667
2023-09-02,70.0770833
2023-09-03,69.9879167
2023-09-04,69.8597917
2023-09-05,69.7069792
2023-09-06,69.4913542
2023-09-07,69.1755208
2023-09-08,68.9296875
2023-09-09,68.9373958
2023-09-10,68.838125
2023-09-11,68.6385417
2023-09-12,68.4926042
2023-09-13,68.4570833
2023-09-14,68.494375
2023-09-15,68.3751042
2023-09-16,68.2441667
2023-09-17,68.1596875
2023-09-18,68.0923958
2023-09-19,68.0873958
2023-09-20,68.1505208
2023-09-21,68.3632292
2023-09-22,68.5259375
2023-09-23,68.58125
2023-09-24,68.2898958
2023-09-25,68.0071875
2023-09-26,67.8615625
2023-09-27,67.6055208
2023-09-28,67.291875
2023-09-29,66.9803125
2023-09-30,66.7426042
2023-10-01,66.4921875
2023-10-02,66.3225
2023-10-03,66.2704167
2023-10-04,66.21875
2023-10-05,66.1855208
2023-10-06,66.1561458
2023-10-07,66.1482292
2023-10-08,66.1478125
2023-10-09,66.0992708
2023-10-10,66.1122917
2023-10-11,66.1036458
2023-10-12,66.0870833
2023-10-13,66.06
2023-10-14,66.0492708
2023-10-15,66.0265625
2023-10-16,66.0205208
2023-10-17,66.0136458
2023-10-18,66.0004167
2023-10-19,65.9989583
2023-10-20,65.9921875
2023-10-21,65.9990625
2023-10-22,66.001875
2023-10-23,65.9819792
2023-10-24,65.9692708
2023-10-25,65.9632292
2023-10-26,65.9973958
2023-10-27,66.0238542
2023-10-28,65.96125
2023-10-29,65.9321875
2023-10-30,65.9269792
2023-10-31,65.9236458
2023-11-01,65.9179167
2023-11-02,65.9205208
2023-11-03,65.9707292
2023-11-04,66.1880208
2023-11-05,66.4576042
2023-11-06,66.6409375
2023-11-07,66.7879167
2023-11-08,66.9126042
2023-11-09,67.0308333
2023-11-10,67.1476042
2023-11-11,67.2780208
2023-11-12,67.4134375
2023-11-13,67.5684375
2023-11-14,67.736875
2023-11-15,67.9291667
2023-11-16,68.0928125
2023-11-17,68.2170833
2023-11-18,68.3277083
2023-11-19,68.4264583
2023-11-20,68.5134375
2023-11-21,68.5766667
2023-11-22,
2023-11-23,
2023-11-24,
2023-11-25,
2023-11-26,
2023-11-27,
2023-11-28,68.2581818
2023-11-29,68.2315625
2023-11-30,68.1992708
2023-12-01,68.173587
2023-12-02,68.1475
2023-12-03,68.154375
2023-12-04,68.1594792
2023-12-05,68.1576042
2023-12-06,68.1115625
2023-12-07,68.0785417
2023-12-08,68.0291667
2023-12-09,67.9780208
2023-12-10,67.9533333
2023-12-11,67.948125
2023-12-12,67.9408333
2023-12-13,67.9203125
2023-12-14,67.9976042
2023-12-15,68.4161458
2023-12-16,68.5228125
2023-12-17,68.53
2023-12-18,68.5617708
2023-12-19,68.659375
2023-12-20,68.724375
2023-12-21,68.7513542
2023-12-22,68.7844792
2023-12-23,68.7642708
2023-12-24,68.8558333
2023-12-25,68.9664583
2023-12-26,69.0722917
2023-12-27,69.1666667
2023-12-28,69.3125
2023-12-29,69.3998958
2023-12-30,69.5030208
2023-12-31,69.6252083
2024-01-01,69.73
2024-01-02,69.7517708
2024-01-03,69.7497917
2024-01-04,69.7869792
2024-01-05,69.8365625
2024-01-06,69.8990625
2024-01-07,69.9490625
2024-01-08,69.9971875
2024-01-09,70.0222917
2024-01-10,69.9170833
2024-01-11,69.7834375
2024-01-12,69.6557292
2024-01-13,69.5793182
2024-01-14,69.51
2024-01-15,69.4298958
2024-01-16,69.3602083
2024-01-17,69.3059375
2024-01-18,69.2721875
2024-01-19,69.2614583
2024-01-20,69.2189583
2024-01-21,69.1715625
2024-01-22,69.1642708
2024-01-23,69.3184783
2024-01-24,69.6573958
2024-01-25,70.0957292
2024-01-26,70.016875
2024-01-27,69.8639583
2024-01-28,69.8747917
2024-01-29,69.8207292
2024-01-30,69.8917708
2024-01-31,69.8267708
2024-02-01,69.7652083
2024-02-02,69.7169792
2024-02-03,69.6604167
2024-02-04,69.5890625
2024-02-05,69.4954167
2024-02-06,69.6784375
2024-02-07,69.7597561
2024-02-08,
2024-02-09,
2024-02-10,
2024-02-11,
2024-02-12,
2024-02-13,
2024-02-14,
2024-02-15,
2024-02-16,
2024-02-17,
2024-02-18,
2024-02-19,
2024-02-20,
2024-02-21,
2024-02-22,
2024-02-23,
2024-02-24,69.9241818
2024-02-25,69.9310417